| time (UTC) | temp F | wind direction | speed MPH | gust MPH | rain 1hr in | rain 24hr in | rain mn in | humidity % | barometer mb |
| 20260502164036 | 79 | 58 | 2.0 | 4.0 | 0.00 | 0.00 | 0.00 | 70 | 1029.4 |
| 20260502163534 | 78 | 333 | 2.0 | 5.0 | 0.00 | 0.00 | 0.00 | 70 | 1029.4 |
| 20260502163035 | 78 | 124 | 2.0 | 5.0 | 0.00 | 0.00 | 0.00 | 71 | 1029.5 |
| 20260502162532 | 78 | 29 | 1.0 | 4.0 | 0.00 | 0.00 | 0.00 | 69 | 1029.5 |
| 20260502162030 | 77 | 47 | 0.0 | 3.0 | 0.00 | 0.00 | 0.00 | 70 | 1029.5 |
| 20260502161529 | 76 | 110 | 0.0 | 3.0 | 0.00 | 0.00 | 0.00 | 73 | 1029.5 |
| 20260502161027 | 75 | 44 | 0.0 | 2.0 | 0.00 | 0.00 | 0.00 | 73 | 1029.4 |
| 20260502160529 | 75 | 51 | 0.0 | 3.0 | 0.00 | 0.00 | 0.00 | 77 | 1029.4 |
| 20260502152014 | 69 | 10 | 1.0 | 2.0 | 0.00 | 0.00 | 0.00 | 85 | 1029.7 |
| 20260502151513 | 69 | 15 | 1.0 | 2.0 | 0.00 | 0.00 | 0.00 | 85 | 1029.7 |
| 20260502151012 | 69 | 4 | 1.0 | 2.0 | 0.00 | 0.00 | 0.00 | 86 | 1029.8 |
| 20260502150510 | 68 | 7 | 1.0 | 2.0 | 0.00 | 0.00 | 0.00 | 86 | 1029.8 |
| 20260502140104 | 64 | 360 | 1.0 | 3.0 | 0.00 | 0.00 | 0.00 | 87 | 1029.5 |
| 20260502130555 | 63 | 4 | 0.0 | 1.0 | 0.00 | 0.00 | 0.00 | 89 | 1029.1 |
| 20260502123552 | 63 | 359 | 0.0 | 2.0 | 0.00 | 0.00 | 0.00 | 89 | 1028.9 |
| 20260502123053 | 63 | 358 | 0.0 | 2.0 | 0.00 | 0.00 | 0.00 | 90 | 1028.9 |
| 20260502122554 | 63 | 358 | 0.0 | 2.0 | 0.00 | 0.00 | 0.00 | 90 | 1028.8 |
| 20260502122052 | 63 | 354 | 0.0 | 1.0 | 0.00 | 0.00 | 0.00 | 90 | 1028.8 |
| 20260502121553 | 63 | 356 | 0.0 | 2.0 | 0.00 | 0.00 | 0.00 | 90 | 1028.7 |
| 20260502121052 | 63 | 354 | 0.0 | 2.0 | 0.00 | 0.00 | 0.00 | 90 | 1028.7 |
| 20260502120551 | 63 | 354 | 0.0 | 1.0 | 0.00 | 0.00 | 0.00 | 90 | 1028.6 |
| 20260502115553 | 63 | 326 | 0.0 | 2.0 | 0.00 | 0.00 | 0.00 | 90 | 1028.6 |
| 20260502115050 | 63 | 359 | 0.0 | 2.0 | 0.00 | 0.00 | 0.00 | 90 | 1028.6 |
| 20260502114550 | 63 | 359 | 0.0 | 2.0 | 0.00 | 0.00 | 0.00 | 90 | 1028.5 |
| 20260502114049 | 63 | 359 | 0.0 | 1.0 | 0.00 | 0.00 | 0.00 | 90 | 1028.5 |
| 20260502113550 | 63 | 359 | 0.0 | 1.0 | 0.00 | 0.00 | 0.00 | 90 | 1028.4 |
| 20260502113048 | 63 | 359 | 0.0 | 1.0 | 0.00 | 0.00 | 0.00 | 90 | 1028.4 |
| 20260502112551 | 63 | 358 | 0.0 | 1.0 | 0.00 | 0.00 | 0.00 | 90 | 1028.3 |
| 20260502112047 | 63 | 354 | 0.0 | 2.0 | 0.00 | 0.00 | 0.00 | 90 | 1028.2 |
| 20260502111600 | 63 | 354 | 0.0 | 2.0 | 0.00 | 0.00 | 0.00 | 90 | 1028.2 |
| 20260502111048 | 63 | 353 | 0.0 | 2.0 | 0.00 | 0.00 | 0.00 | 90 | 1028.2 |
| 20260502110547 | 63 | 352 | 0.0 | 2.0 | 0.00 | 0.00 | 0.00 | 90 | 1028.1 |
| 20260502110047 | 63 | 355 | 0.0 | 2.0 | 0.00 | 0.00 | 0.00 | 90 | 1028.1 |
| 20260502105548 | 63 | 355 | 0.0 | 2.0 | 0.00 | 0.00 | 0.00 | 90 | 1028.0 |
| 20260502105047 | 63 | 355 | 0.0 | 2.0 | 0.00 | 0.00 | 0.00 | 90 | 1027.9 |
| 20260502104547 | 63 | 355 | 0.0 | 2.0 | 0.00 | 0.00 | 0.00 | 90 | 1027.9 |
| 20260502104048 | 63 | 355 | 1.0 | 2.0 | 0.00 | 0.00 | 0.00 | 90 | 1027.8 |
| 20260502103545 | 63 | 359 | 0.0 | 2.0 | 0.00 | 0.00 | 0.00 | 90 | 1027.9 |
| 20260502103101 | 63 | 1 | 1.0 | 2.0 | 0.00 | 0.00 | 0.00 | 90 | 1027.9 |
| 20260502102544 | 63 | 1 | 0.0 | 2.0 | 0.00 | 0.00 | 0.00 | 90 | 1027.9 |
| 20260502102045 | 63 | 360 | 0.0 | 2.0 | 0.00 | 0.00 | 0.00 | 90 | 1027.9 |
| 20260502101546 | 63 | 1 | 0.0 | 2.0 | 0.00 | 0.00 | 0.00 | 90 | 1027.9 |
| 20260502101044 | 64 | 1 | 0.0 | 2.0 | 0.00 | 0.00 | 0.00 | 90 | 1027.9 |
| 20260502100643 | 64 | 1 | 1.0 | 2.0 | 0.00 | 0.00 | 0.00 | 90 | 1027.9 |
| 20260502091038 | 64 | 359 | 0.0 | 2.0 | 0.00 | 0.00 | 0.00 | 90 | 1027.7 |
| 20260502090542 | 64 | 1 | 0.0 | 3.0 | 0.00 | 0.00 | 0.00 | 90 | 1027.8 |
| 20260502071528 | 66 | 8 | 0.0 | 2.0 | 0.00 | 0.00 | 0.00 | 90 | 1028.4 |
| 20260502071021 | 66 | 1 | 0.0 | 2.0 | 0.00 | 0.00 | 0.00 | 90 | 1028.5 |
| 20260502070520 | 65 | 1 | 1.0 | 2.0 | 0.00 | 0.00 | 0.00 | 90 | 1028.6 |
| 20260502070024 | 65 | 1 | 1.0 | 2.0 | 0.00 | 0.00 | 0.00 | 90 | 1028.7 |
| 20260502065519 | 65 | 350 | 0.0 | 1.0 | 0.00 | 0.00 | 0.00 | 90 | 1028.6 |
| 20260502065024 | 65 | 350 | 0.0 | 2.0 | 0.00 | 0.00 | 0.00 | 90 | 1028.7 |
| 20260502064520 | 65 | 350 | 0.0 | 2.0 | 0.00 | 0.00 | 0.00 | 90 | 1028.8 |
| 20260502064018 | 65 | 349 | 0.0 | 2.0 | 0.00 | 0.00 | 0.00 | 90 | 1028.8 |
| 20260502063517 | 65 | 347 | 0.0 | 2.0 | 0.00 | 0.00 | 0.00 | 89 | 1028.9 |
| 20260502063026 | 65 | 347 | 0.0 | 2.0 | 0.00 | 0.00 | 0.00 | 89 | 1028.9 |
| 20260502062516 | 65 | 347 | 0.0 | 2.0 | 0.00 | 0.00 | 0.00 | 89 | 1029.0 |
| 20260502062015 | 65 | 347 | 0.0 | 1.0 | 0.00 | 0.00 | 0.00 | 89 | 1029.0 |
| 20260502061515 | 65 | 347 | 0.0 | 2.0 | 0.00 | 0.00 | 0.00 | 89 | 1029.1 |
| 20260502061014 | 65 | 347 | 0.0 | 2.0 | 0.00 | 0.00 | 0.00 | 89 | 1029.0 |
| 20260502060513 | 65 | 347 | 0.0 | 2.0 | 0.00 | 0.00 | 0.00 | 89 | 1029.1 |
| 20260502060019 | 66 | 347 | 0.0 | 2.0 | 0.00 | 0.00 | 0.00 | 89 | 1029.1 |
| 20260502055512 | 66 | 351 | 0.0 | 2.0 | 0.00 | 0.00 | 0.00 | 89 | 1029.0 |
| 20260502055012 | 66 | 351 | 0.0 | 2.0 | 0.00 | 0.00 | 0.00 | 89 | 1029.0 |
| 20260502054523 | 66 | 331 | 0.0 | 1.0 | 0.00 | 0.00 | 0.00 | 89 | 1029.0 |
| 20260502054013 | 66 | 331 | 0.0 | 1.0 | 0.00 | 0.00 | 0.00 | 88 | 1029.1 |
| 20260502053511 | 66 | 331 | 0.0 | 2.0 | 0.00 | 0.00 | 0.00 | 89 | 1029.2 |
| 20260502053011 | 66 | 331 | 0.0 | 2.0 | 0.00 | 0.00 | 0.00 | 88 | 1029.2 |
| 20260502052511 | 66 | 331 | 0.0 | 1.0 | 0.00 | 0.00 | 0.00 | 88 | 1029.2 |
| 20260502052011 | 66 | 332 | 0.0 | 1.0 | 0.00 | 0.00 | 0.00 | 88 | 1029.2 |
| 20260502051510 | 67 | 332 | 0.0 | 1.0 | 0.00 | 0.00 | 0.00 | 88 | 1029.2 |
| 20260502051010 | 67 | 332 | 0.0 | 1.0 | 0.00 | 0.00 | 0.00 | 88 | 1029.2 |
| 20260502050510 | 67 | 336 | 0.0 | 1.0 | 0.00 | 0.00 | 0.00 | 88 | 1029.3 |
| 20260502050011 | 67 | 336 | 0.0 | 1.0 | 0.00 | 0.00 | 0.00 | 88 | 1029.3 |
| 20260502045511 | 67 | 336 | 0.0 | 1.0 | 0.00 | 0.00 | 0.00 | 88 | 1029.4 |
| 20260502045009 | 67 | 336 | 0.0 | 1.0 | 0.00 | 0.00 | 0.00 | 87 | 1029.3 |
| 20260502044510 | 68 | 336 | 0.0 | 2.0 | 0.00 | 0.00 | 0.00 | 88 | 1029.5 |
| 20260502044010 | 68 | 336 | 0.0 | 2.0 | 0.00 | 0.00 | 0.00 | 88 | 1029.5 |
| 20260502043509 | 68 | 336 | 0.0 | 2.0 | 0.00 | 0.00 | 0.00 | 87 | 1029.5 |
| 20260502043009 | 68 | 338 | 0.0 | 2.0 | 0.00 | 0.00 | 0.00 | 88 | 1029.6 |
| 20260502042509 | 68 | 338 | 0.0 | 2.0 | 0.00 | 0.00 | 0.00 | 88 | 1029.6 |
| 20260502042009 | 69 | 335 | 0.0 | 0.0 | 0.00 | 0.00 | 0.00 | 87 | 1029.6 |
| 20260502041508 | 69 | 335 | 0.0 | 0.0 | 0.00 | 0.00 | 0.00 | 87 | 1029.6 |
| 20260502041007 | 69 | 335 | 0.0 | 0.0 | 0.00 | 0.00 | 0.00 | 88 | 1029.7 |
| 20260502040507 | 69 | 335 | 0.0 | 0.0 | 0.00 | 0.00 | 0.00 | 87 | 1029.7 |
| 20260502040009 | 69 | 335 | 0.0 | 1.0 | 0.00 | 0.00 | 0.00 | 87 | 1029.7 |
| 20260502035506 | 69 | 1 | 0.0 | 2.0 | 0.00 | 0.00 | 0.00 | 88 | 1029.6 |
| 20260502035006 | 69 | 1 | 0.0 | 2.0 | 0.00 | 0.00 | 0.00 | 88 | 1029.6 |
| 20260502034506 | 70 | 1 | 0.0 | 2.0 | 0.00 | 0.00 | 0.00 | 88 | 1029.6 |
| 20260502034007 | 70 | 352 | 0.0 | 2.0 | 0.00 | 0.00 | 0.00 | 87 | 1029.6 |
| 20260502033506 | 70 | 352 | 0.0 | 1.0 | 0.00 | 0.00 | 0.00 | 88 | 1029.5 |
| 20260502033003 | 70 | 352 | 0.0 | 1.0 | 0.00 | 0.00 | 0.00 | 88 | 1029.4 |
| 20260502032502 | 70 | 345 | 0.0 | 1.0 | 0.00 | 0.00 | 0.00 | 88 | 1029.1 |
| 20260502032002 | 70 | 343 | 0.0 | 1.0 | 0.00 | 0.00 | 0.00 | 88 | 1029.1 |
| 20260502031502 | 70 | 338 | 0.0 | 1.0 | 0.00 | 0.00 | 0.00 | 88 | 1029.0 |
| 20260502031102 | 70 | 338 | 0.0 | 1.0 | 0.00 | 0.00 | 0.00 | 88 | 1029.0 |
| 20260502030559 | 70 | 338 | 0.0 | 1.0 | 0.00 | 0.00 | 0.00 | 88 | 1028.8 |
| 20260502030101 | 71 | 338 | 0.0 | 1.0 | 0.00 | 0.00 | 0.00 | 89 | 1028.7 |
| 20260502025559 | 71 | 338 | 0.0 | 2.0 | 0.00 | 0.05 | 0.00 | 88 | 1028.6 |
| 20260502025102 | 71 | 338 | 0.0 | 2.0 | 0.00 | 0.05 | 0.00 | 89 | 1028.5 |
| 20260502024559 | 71 | 338 | 0.0 | 2.0 | 0.00 | 0.05 | 0.00 | 88 | 1028.4 |
| 20260502024059 | 71 | 6 | 0.0 | 2.0 | 0.00 | 0.05 | 0.00 | 90 | 1028.3 |
| 20260502023601 | 71 | 3 | 0.0 | 2.0 | 0.00 | 0.05 | 0.00 | 90 | 1028.2 |
| 20260502023059 | 71 | 1 | 0.0 | 2.0 | 0.00 | 0.05 | 0.00 | 90 | 1028.1 |
| 20260502022558 | 71 | 14 | 0.0 | 2.0 | 0.00 | 0.05 | 0.00 | 90 | 1027.9 |
| 20260502022057 | 71 | 1 | 0.0 | 1.0 | 0.00 | 0.05 | 0.00 | 90 | 1027.9 |
| 20260502021557 | 71 | 13 | 0.0 | 1.0 | 0.00 | 0.05 | 0.00 | 90 | 1027.8 |
| 20260502021057 | 71 | 13 | 0.0 | 0.0 | 0.00 | 0.05 | 0.00 | 90 | 1027.6 |
| 20260502020558 | 71 | 13 | 0.0 | 0.0 | 0.00 | 0.05 | 0.00 | 89 | 1027.6 |
| 20260502020058 | 71 | 13 | 0.0 | 0.0 | 0.00 | 0.05 | 0.00 | 89 | 1027.5 |
| 20260502015556 | 71 | 13 | 0.0 | 1.0 | 0.00 | 0.09 | 0.00 | 89 | 1027.4 |
| 20260502015058 | 72 | 13 | 0.0 | 1.0 | 0.00 | 0.09 | 0.00 | 89 | 1027.3 |
| 20260502014557 | 72 | 13 | 0.0 | 1.0 | 0.00 | 0.09 | 0.00 | 89 | 1027.2 |
| 20260502014057 | 72 | 13 | 0.0 | 0.0 | 0.00 | 0.09 | 0.00 | 89 | 1027.1 |
| 20260502013557 | 72 | 13 | 0.0 | 0.0 | 0.00 | 0.09 | 0.00 | 88 | 1027.0 |
| 20260502013057 | 72 | 13 | 0.0 | 1.0 | 0.00 | 0.09 | 0.00 | 88 | 1026.9 |
| 20260502012557 | 72 | 13 | 0.0 | 1.0 | 0.00 | 0.09 | 0.00 | 88 | 1026.7 |
| 20260502012057 | 72 | 13 | 0.0 | 2.0 | 0.00 | 0.09 | 0.00 | 88 | 1026.6 |
| 20260502011601 | 72 | 6 | 0.0 | 2.0 | 0.00 | 0.09 | 0.00 | 88 | 1026.4 |
| 20260502011056 | 72 | 18 | 0.0 | 2.0 | 0.00 | 0.09 | 0.00 | 88 | 1026.3 |
| 20260502010555 | 73 | 18 | 1.0 | 2.0 | 0.00 | 0.09 | 0.00 | 87 | 1026.3 |
| 20260502010056 | 73 | 18 | 0.0 | 1.0 | 0.00 | 0.09 | 0.00 | 87 | 1026.2 |
| 20260502005556 | 73 | 18 | 0.0 | 2.0 | 0.00 | 0.10 | 0.00 | 87 | 1026.2 |
| 20260502005056 | 73 | 18 | 0.0 | 2.0 | 0.00 | 0.10 | 0.00 | 86 | 1026.0 |
| 20260502004608 | 73 | 45 | 0.0 | 1.0 | 0.00 | 0.10 | 0.00 | 86 | 1025.9 |
| 20260502004057 | 74 | 45 | 0.0 | 1.0 | 0.00 | 0.10 | 0.00 | 86 | 1025.8 |
| 20260502003555 | 74 | 45 | 0.0 | 2.0 | 0.00 | 0.10 | 0.00 | 85 | 1025.8 |
| 20260502003055 | 74 | 45 | 0.0 | 2.0 | 0.00 | 0.10 | 0.00 | 84 | 1025.7 |
| 20260502002554 | 74 | 18 | 1.0 | 4.0 | 0.00 | 0.10 | 0.00 | 84 | 1025.7 |
| 20260502002054 | 75 | 1 | 1.0 | 4.0 | 0.00 | 0.10 | 0.00 | 83 | 1025.4 |
| 20260502001555 | 75 | 1 | 0.0 | 4.0 | 0.00 | 0.10 | 0.00 | 84 | 1025.3 |
| 20260502001054 | 75 | 30 | 1.0 | 5.0 | 0.00 | 0.10 | 0.00 | 83 | 1025.3 |
| 20260502000555 | 75 | 1 | 3.0 | 5.0 | 0.00 | 0.10 | 0.00 | 82 | 1025.3 |
| 20260502000101 | 75 | 2 | 1.0 | 5.0 | 0.00 | 0.10 | 0.00 | 83 | 1025.3 |
| 20260501235554 | 75 | 86 | 0.0 | 3.0 | 0.00 | 0.10 | 0.00 | 84 | 1025.2 |
| 20260501235054 | 76 | 354 | 0.0 | 2.0 | 0.00 | 0.10 | 0.00 | 84 | 1025.0 |
| 20260501234556 | 76 | 20 | 0.0 | 4.0 | 0.00 | 0.10 | 0.00 | 83 | 1025.0 |
| 20260501234055 | 76 | 49 | 0.0 | 4.0 | 0.00 | 0.10 | 0.00 | 83 | 1024.8 |
| 20260501233557 | 76 | 28 | 1.0 | 3.0 | 0.00 | 0.10 | 0.00 | 82 | 1024.7 |
| 20260501233055 | 76 | 79 | 0.0 | 3.0 | 0.00 | 0.10 | 0.00 | 83 | 1024.6 |
| 20260501232553 | 76 | 10 | 1.0 | 3.0 | 0.00 | 0.10 | 0.00 | 82 | 1024.5 |
| 20260501232054 | 77 | 8 | 0.0 | 3.0 | 0.00 | 0.10 | 0.00 | 82 | 1024.5 |
| 20260501231554 | 77 | 105 | 0.0 | 5.0 | 0.00 | 0.10 | 0.00 | 81 | 1024.3 |
| 20260501231052 | 77 | 72 | 2.0 | 6.0 | 0.00 | 0.10 | 0.00 | 81 | 1024.2 |
| 20260501230555 | 78 | 287 | 2.0 | 7.0 | 0.00 | 0.10 | 0.00 | 81 | 1024.2 |
| 20260501230052 | 78 | 205 | 1.0 | 7.0 | 0.00 | 0.10 | 0.00 | 80 | 1024.1 |
| 20260501225552 | 78 | 110 | 1.0 | 7.0 | 0.00 | 0.10 | 0.00 | 80 | 1024.0 |
| 20260501225052 | 78 | 261 | 0.0 | 5.0 | 0.00 | 0.10 | 0.00 | 80 | 1023.9 |
| 20260501224552 | 78 | 1 | 1.0 | 4.0 | 0.00 | 0.10 | 0.00 | 79 | 1024.0 |
| 20260501224052 | 78 | 193 | 2.0 | 4.0 | 0.00 | 0.10 | 0.00 | 79 | 1023.9 |
| 20260501223552 | 79 | 1 | 1.0 | 7.0 | 0.00 | 0.10 | 0.00 | 79 | 1023.8 |
| 20260501223102 | 79 | 355 | 3.0 | 7.0 | 0.00 | 0.10 | 0.00 | 79 | 1023.9 |
| 20260501222551 | 79 | 287 | 0.0 | 8.0 | 0.00 | 0.10 | 0.00 | 78 | 1023.9 |
| 20260501222051 | 79 | 41 | 2.0 | 7.0 | 0.00 | 0.10 | 0.00 | 78 | 1024.1 |
| 20260501221551 | 79 | 351 | 3.0 | 9.0 | 0.00 | 0.10 | 0.00 | 78 | 1024.0 |
| 20260501221054 | 79 | 188 | 3.0 | 9.0 | 0.00 | 0.10 | 0.00 | 77 | 1024.0 |
| 20260501220550 | 79 | 182 | 2.0 | 5.0 | 0.00 | 0.10 | 0.00 | 77 | 1024.0 |
| 20260501220053 | 80 | 333 | 2.0 | 7.0 | 0.00 | 0.10 | 0.00 | 77 | 1024.0 |
| 20260501215551 | 80 | 338 | 2.0 | 7.0 | 0.00 | 0.10 | 0.00 | 77 | 1024.0 |
| 20260501215050 | 80 | 283 | 0.0 | 7.0 | 0.00 | 0.10 | 0.00 | 77 | 1024.0 |
| 20260501214551 | 80 | 338 | 3.0 | 7.0 | 0.00 | 0.10 | 0.00 | 75 | 1023.9 |
| 20260501214049 | 80 | 315 | 2.0 | 8.0 | 0.00 | 0.10 | 0.00 | 75 | 1024.0 |
| 20260501213548 | 81 | 148 | 1.0 | 6.0 | 0.00 | 0.10 | 0.00 | 76 | 1024.0 |
| 20260501213107 | 81 | 301 | 2.0 | 5.0 | 0.00 | 0.10 | 0.00 | 74 | 1024.1 |
| 20260501212548 | 81 | 342 | 1.0 | 5.0 | 0.00 | 0.10 | 0.00 | 72 | 1024.2 |
| 20260501212049 | 81 | 184 | 1.0 | 5.0 | 0.00 | 0.10 | 0.00 | 71 | 1024.3 |
| 20260501211548 | 81 | 270 | 1.0 | 5.0 | 0.00 | 0.10 | 0.00 | 71 | 1024.2 |
| 20260501211047 | 81 | 201 | 1.0 | 5.0 | 0.00 | 0.10 | 0.00 | 72 | 1024.2 |
| 20260501210547 | 80 | 349 | 0.0 | 5.0 | 0.00 | 0.10 | 0.00 | 74 | 1024.2 |
| 20260501210047 | 81 | 207 | 0.0 | 6.0 | 0.00 | 0.10 | 0.00 | 72 | 1024.3 |
| 20260501205546 | 81 | 7 | 2.0 | 6.0 | 0.00 | 0.10 | 0.00 | 70 | 1024.3 |
| 20260501205048 | 81 | 122 | 2.0 | 4.0 | 0.00 | 0.10 | 0.00 | 68 | 1024.3 |
| 20260501204549 | 81 | 103 | 1.0 | 6.0 | 0.00 | 0.10 | 0.00 | 68 | 1024.3 |
| 20260501204049 | 81 | 178 | 1.0 | 6.0 | 0.00 | 0.10 | 0.00 | 68 | 1024.4 |
| 20260501203544 | 81 | 215 | 1.0 | 5.0 | 0.00 | 0.10 | 0.00 | 70 | 1024.5 |
| 20260501203043 | 81 | 264 | 2.0 | 5.0 | 0.00 | 0.10 | 0.00 | 70 | 1024.6 |
| 20260501202542 | 80 | 329 | 0.0 | 4.0 | 0.00 | 0.10 | 0.00 | 72 | 1024.5 |
| 20260501202043 | 80 | 139 | 0.0 | 7.0 | 0.00 | 0.10 | 0.00 | 75 | 1024.7 |
| 20260501201540 | 80 | 334 | 2.0 | 7.0 | 0.00 | 0.10 | 0.00 | 71 | 1024.9 |
| 20260501201039 | 80 | 12 | 0.0 | 4.0 | 0.00 | 0.10 | 0.00 | 73 | 1025.2 |
| 20260501200542 | 80 | 67 | 1.0 | 6.0 | 0.00 | 0.10 | 0.00 | 75 | 1025.2 |
| 20260501200038 | 80 | 75 | 0.0 | 3.0 | 0.00 | 0.10 | 0.00 | 73 | 1025.1 |
| 20260501195538 | 79 | 354 | 0.0 | 4.0 | 0.00 | 0.10 | 0.00 | 73 | 1025.2 |
| 20260501195037 | 79 | 178 | 2.0 | 5.0 | 0.00 | 0.10 | 0.00 | 74 | 1025.4 |
| 20260501194541 | 79 | 281 | 1.0 | 5.0 | 0.00 | 0.10 | 0.00 | 74 | 1025.4 |
| 20260501194036 | 79 | 103 | 0.0 | 2.0 | 0.00 | 0.10 | 0.00 | 79 | 1025.4 |
| 20260501193536 | 79 | 227 | 0.0 | 3.0 | 0.00 | 0.10 | 0.00 | 75 | 1025.4 |
| 20260501193035 | 79 | 352 | 1.0 | 5.0 | 0.00 | 0.10 | 0.00 | 74 | 1025.5 |
| 20260501192534 | 79 | 18 | 2.0 | 5.0 | 0.00 | 0.10 | 0.00 | 73 | 1025.6 |
| 20260501192034 | 79 | 40 | 1.0 | 3.0 | 0.00 | 0.10 | 0.00 | 72 | 1025.7 |
| 20260501191534 | 79 | 173 | 0.0 | 3.0 | 0.00 | 0.10 | 0.00 | 78 | 1025.8 |
| 20260501191032 | 80 | 1 | 1.0 | 3.0 | 0.00 | 0.10 | 0.00 | 73 | 1025.9 |
| 20260501190531 | 80 | 75 | 0.0 | 5.0 | 0.00 | 0.10 | 0.00 | 72 | 1026.1 |
| 20260501190030 | 80 | 71 | 2.0 | 5.0 | 0.00 | 0.10 | 0.00 | 67 | 1026.1 |
| 20260501185530 | 80 | 51 | 1.0 | 4.0 | 0.00 | 0.10 | 0.00 | 67 | 1026.2 |
| 20260501185029 | 80 | 193 | 1.0 | 4.0 | 0.00 | 0.10 | 0.00 | 70 | 1026.4 |
| 20260501184528 | 80 | 51 | 1.0 | 4.0 | 0.00 | 0.10 | 0.00 | 72 | 1026.5 |
| 20260501184028 | 80 | 209 | 0.0 | 3.0 | 0.00 | 0.10 | 0.00 | 73 | 1026.6 |
| 20260501183527 | 80 | 49 | 0.0 | 4.0 | 0.00 | 0.10 | 0.00 | 74 | 1026.6 |
| 20260501183027 | 79 | 292 | 1.0 | 4.0 | 0.00 | 0.10 | 0.00 | 74 | 1026.7 |
| 20260501182526 | 79 | 1 | 1.0 | 4.0 | 0.00 | 0.10 | 0.00 | 73 | 1026.7 |
| 20260501182025 | 79 | 48 | 2.0 | 4.0 | 0.00 | 0.10 | 0.00 | 75 | 1026.7 |
| 20260501181523 | 77 | 6 | 1.0 | 3.0 | 0.00 | 0.10 | 0.00 | 79 | 1026.8 |
| 20260501181023 | 76 | 24 | 0.0 | 2.0 | 0.00 | 0.10 | 0.00 | 81 | 1026.9 |
| 20260501180523 | 76 | 1 | 0.0 | 3.0 | 0.00 | 0.10 | 0.00 | 84 | 1027.0 |
| 20260501180034 | 76 | 1 | 1.0 | 3.0 | 0.00 | 0.10 | 0.00 | 85 | 1027.0 |
| 20260501175523 | 76 | 290 | 0.0 | 2.0 | 0.00 | 0.10 | 0.00 | 86 | 1027.0 |
| 20260501175022 | 76 | 1 | 0.0 | 2.0 | 0.00 | 0.10 | 0.00 | 85 | 1027.0 |
| 20260501174524 | 76 | 1 | 1.0 | 2.0 | 0.00 | 0.10 | 0.00 | 84 | 1027.1 |
| 20260501174022 | 76 | 4 | 0.0 | 2.0 | 0.00 | 0.10 | 0.00 | 84 | 1027.0 |
| 20260501173522 | 77 | 4 | 0.0 | 5.0 | 0.00 | 0.10 | 0.00 | 83 | 1027.1 |
| 20260501173022 | 77 | 37 | 1.0 | 5.0 | 0.00 | 0.10 | 0.00 | 81 | 1027.1 |
| 20260501172521 | 77 | 1 | 0.0 | 2.0 | 0.00 | 0.10 | 0.00 | 83 | 1027.3 |
| 20260501172021 | 78 | 1 | 0.0 | 1.0 | 0.00 | 0.10 | 0.00 | 82 | 1027.4 |